Branson, MO

4:04 PM CDT on May 28, 2017 (GMT -0500)
Branson

Weather History for KBBG - March, 2013

Change the Weather History Date:

Tuesday, March 19, 2013

  Actual Average (KHRO) Record (KHRO)
Temperature  
Mean Temperature 42 °F -  
Max Temperature 51 °F 60 °F 91 °F (1907)
Min Temperature 32 °F 40 °F 11 °F (1892)
Degree Days  
Heating Degree Days 24    
Moisture  
Dew Point 24 °F    
Average Humidity 54    
Maximum Humidity 80    
Minimum Humidity 20    
Precipitation  
Precipitation 0.00 in - - ()
Sea Level Pressure  
Sea Level Pressure 30.15 in    
Wind  
Wind Speed 3 mph (NE)    
Max Wind Speed 10 mph    
Max Gust Speed -    
Visibility 10 miles    
Events      
Averages and records for this station are not official NWS values.
T = Trace of Precipitation, MM = Missing Value Source: NWS Daily Summary

Daily Weather History Graph

Daily Weather History Graph

Search for Another Location

Airport or City:

Trip Planner

Search our weather history database for the weather conditions in past years. The results will help you decide how hot, cold, wet, or windy it might be!

Date:

Astronomy

Mar. 19, 2013 Rise Set
Actual Time 7:17 AM CDT 7:23 PM CDT
Civil Twilight 6:51 AM CDT 7:49 PM CDT
Nautical Twilight 6:21 AM CDT 8:19 PM CDT
Astronomical Twilight 5:51 AM CDT 8:50 PM CDT
Moon 12:17 PM CDT (3/19) 2:02 AM CDT (3/19)
Length of Visible Light 12h 58m
Length of Day
12h 06m
Waxing Crescent, 50% of the Moon is Illuminated
Mar 19
Waxing Crescent
Mar 19
First Quarter
Mar 27
Full
Apr 2
Last Quarter
Apr 10
New

Hourly Weather History & Observations

Time (CDT) Temp. Windchill Dew Point Humidity Pressure Visibility Wind Dir Wind Speed Gust Speed Precip Events Conditions
12:15 AM 42.8 °F - 26.6 °F 53% 30.04 in 10.0 mi Calm Calm - N/A   Clear
12:35 AM 41.0 °F - 26.6 °F 57% 30.04 in 10.0 mi Calm Calm - N/A   Clear
12:55 AM 39.2 °F - 28.4 °F 65% 30.05 in 10.0 mi Calm Calm - N/A   Clear
1:15 AM 39.2 °F 37.0 °F 26.6 °F 61% 30.06 in 10.0 mi WNW 3.5 mph - N/A   Clear
1:35 AM 41.0 °F 39.0 °F 26.6 °F 57% 30.08 in 10.0 mi West 3.5 mph - N/A   Clear
1:55 AM 41.0 °F 39.0 °F 26.6 °F 57% 30.08 in 10.0 mi WNW 3.5 mph - N/A   Clear
2:15 AM 39.2 °F 37.0 °F 28.4 °F 65% 30.05 in 10.0 mi ENE 3.5 mph - N/A   Clear
2:55 AM 37.4 °F 34.9 °F 26.6 °F 65% 30.06 in 10.0 mi NNE 3.5 mph - N/A   Clear
3:15 AM 39.2 °F 35.9 °F 26.6 °F 61% 30.07 in 10.0 mi North 4.6 mph - N/A   Clear
3:35 AM 37.4 °F 32.8 °F 26.6 °F 65% 30.06 in 10.0 mi NNE 5.8 mph - N/A   Clear
3:55 AM 37.4 °F 33.8 °F 26.6 °F 65% 30.07 in 10.0 mi North 4.6 mph - N/A   Clear
4:15 AM 33.8 °F - 26.6 °F 75% 30.09 in 10.0 mi Calm Calm - N/A   Clear
4:35 AM 35.6 °F 31.7 °F 28.4 °F 75% 30.08 in 10.0 mi NNE 4.6 mph - N/A   Clear
4:55 AM 35.6 °F 32.8 °F 26.6 °F 70% 30.07 in 10.0 mi NE 3.5 mph - N/A   Clear
5:15 AM 35.6 °F 31.7 °F 26.6 °F 70% 30.08 in 10.0 mi NNE 4.6 mph - N/A   Clear
5:35 AM 35.6 °F 31.7 °F 26.6 °F 70% 30.09 in 10.0 mi NNE 4.6 mph - N/A   Clear
5:55 AM 35.6 °F 32.8 °F 24.8 °F 65% 30.11 in 10.0 mi East 3.5 mph - N/A   Clear
6:15 AM 33.8 °F 30.8 °F 24.8 °F 70% 30.11 in 10.0 mi ENE 3.5 mph - N/A   Clear
6:35 AM 32.0 °F 28.7 °F 26.6 °F 80% 30.12 in 10.0 mi SE 3.5 mph - N/A   Clear
6:51 AM 50.0 °F - 24.8 °F 37% 30.13 in 10.0 mi Calm Calm - N/A   Scattered Clouds
7:57 AM 32.0 °F - 23.0 °F 69% 30.16 in 10.0 mi Calm Calm - N/A   Scattered Clouds
8:51 AM 37.4 °F 33.8 °F 17.6 °F 45% 30.18 in 10.0 mi NNE 4.6 mph - N/A   Scattered Clouds
9:53 AM 41.0 °F 38.0 °F 15.8 °F 36% 30.20 in 10.0 mi NE 4.6 mph - N/A   Scattered Clouds
10:53 AM 42.8 °F - 15.8 °F 34% 30.21 in 10.0 mi Calm Calm - N/A   Mostly Cloudy
11:50 AM 46.4 °F - 12.2 °F 25% 30.21 in 10.0 mi Calm Calm - N/A   Mostly Cloudy
12:49 PM 48.2 °F - 8.6 °F 20% 30.20 in 10.0 mi ENE 4.6 mph - N/A   Mostly Cloudy
2:51 PM 51.8 °F - 17.6 °F 26% 30.16 in 10.0 mi ESE 9.2 mph - N/A   Mostly Cloudy
3:50 PM 50.0 °F - 15.8 °F 26% 30.15 in 10.0 mi East 6.9 mph - N/A   Overcast
4:46 PM 50.0 °F - 15.8 °F 26% 30.15 in 10.0 mi East 4.6 mph - N/A   Overcast
5:45 PM 50.0 °F - 19.4 °F 30% 30.17 in 10.0 mi North 9.2 mph - N/A   Overcast
6:45 PM 46.4 °F 42.4 °F 19.4 °F 34% 30.18 in 10.0 mi NNE 8.1 mph - N/A   Overcast
7:45 PM 44.6 °F 39.2 °F 23.0 °F 43% 30.19 in 10.0 mi North 10.4 mph - N/A   Overcast
8:49 PM 41.0 °F 35.2 °F 23.0 °F 49% 30.22 in 10.0 mi NNE 9.2 mph - N/A   Overcast
9:15 PM 41.0 °F 37.1 °F 23.0 °F 49% 30.23 in 10.0 mi NNE 5.8 mph - N/A   Mostly Cloudy
9:35 PM 41.0 °F 37.1 °F 23.0 °F 49% 30.24 in 10.0 mi NNE 5.8 mph - N/A   Overcast
9:55 PM 41.0 °F 39.0 °F 24.8 °F 53% 30.24 in 10.0 mi NNE 3.5 mph - N/A   Overcast
10:15 PM 39.2 °F - 26.6 °F 61% 30.24 in 10.0 mi Calm Calm - N/A   Overcast
10:35 PM 39.2 °F - 26.6 °F 61% 30.24 in 10.0 mi Calm Calm - N/A   Overcast
10:55 PM 39.2 °F - 26.6 °F 61% 30.24 in 10.0 mi Calm Calm - N/A   Mostly Cloudy
11:15 PM 39.2 °F - 28.4 °F 65% 30.25 in 10.0 mi Calm Calm - N/A   Overcast
11:35 PM 37.4 °F - 24.8 °F 60% 30.25 in 10.0 mi Calm Calm - N/A   Overcast
11:55 PM 39.2 °F - 24.8 °F 56% 30.25 in 10.0 mi Calm Calm - N/A   Overcast